Location: Lugrin
(46.4033°N, 6.6674°E)
Time: 17:28:48
(UTC+00:00)

Cosmos 1072 Rocket - Pass Details

Date: 18 September 2020
Orbit: 949 x 1008 km, 82.9° (Epoch: 28 October)

Event Time Altitude Azimuth Distance (km) Brightness Sun altitude
Rises 18:47:17 0° 178° (S) 3,644 7.3 -12.6°
Reaches altitude 10° 18:49:46 10° 176° (S) 2,709 6.6 -13.0°
Maximum altitude 18:55:55 70° 94° (E) 1,047 4.5 -14.0°
Drops below altitude 10° 19:02:14 10° 13° (NNE) 2,769 6.9 -15.0°
Sets 19:04:47 0° 11° (N) 3,729 7.7 -15.4°
